Miscellaneous Local Product
Issued by NWS Hastings, NE

Home | Current Version | Previous Version | Text Only | Print | Product List | Glossary Off
Versions: 1 2 3 4 5 6 7 8 9 10 11 12 13 14 15 16 17 18 19 20 21 22 23 24 25 26 27 28 29 30 31 32 33 34 35 36 37 38 39 40 41 42 43 44 45 46 47 48 49 50

000
AXUS43 KGID 260502
MISGRI

GID CWA HOURLY WEATHER ROUNDUP
NATIONAL WEATHER SERVICE HASTINGS NE
1100 PM CST THU DEC 25 2014

NOTE: "FAIR" INDICATES FEW OR NO CLOUDS BELOW 12,000 FEET WITH NO
SIGNIFICANT WEATHER AND/OR OBSTRUCTIONS TO VISIBILITY.

...SOUTH CENTRAL NEBRASKA...

CITY           SKY/WX    TMP DP  RH WIND       PRES   REMARKS
GRAND ISLAND   MOCLDY    31  28  89 N16       29.78R WCI  20
HASTINGS       CLEAR     30  27  88 N15       29.75R WCI  19
KEARNEY        CLOUDY    32  27  80 N21       29.77R WCI  20
ORD            CLOUDY    28  24  85 N20G29    29.80R WCI  15
YORK           CLEAR     32  30  93 N14       29.74R WCI  22
AURORA         CLEAR     31  30  94 N14       29.75R WCI  21
LEXINGTON      CLOUDY    31  27  86 N18G30    29.79R WCI  19
HOLDREGE       CLOUDY    31  28  87 N20G28    29.76R WCI  19
HEBRON         FAIR      30  26  84 NW7       29.70R WCI  23

...NEBRASKA PANHANDLE...

CITY           SKY/WX    TMP DP  RH WIND       PRES   REMARKS
CHADRON        LGT SNOW  23  20  88 N17       29.95R FOG     WCI   9
ALLIANCE       LGT SNOW  22  20  92 N12       29.87R FOG     WCI  10
SCOTTSBLUFF    LGT SNOW  23  19  85 N9        29.92R FOG     WCI  13
SIDNEY         LGT SNOW  21  18  88 N17       29.86R FOG     WCI   7

...WESTERN AND NORTH CENTRAL NEBRASKA...

CITY           SKY/WX    TMP DP  RH WIND       PRES   REMARKS
VALENTINE      LGT SNOW  25  21  85 N20G29    29.90S FOG     WCI  11
AINSWORTH      CLOUDY    24  22  91 N17G25    29.88R WCI  10
ONEILL         CLOUDY    27  27  98 N15G23    29.86R FOG     WCI  15
BROKEN BOW     CLOUDY    28  24  85 N23G30    29.80R WCI  14
IMPERIAL       CLOUDY    28  24  85 N20       29.83R WCI  15
NORTH PLATTE   CLOUDY    27  24  89 N14G23    29.83R WCI  16
MCCOOK         CLOUDY    31  26  82 N21       29.79R WCI  18

...EASTERN NEBRASKA...

CITY           SKY/WX    TMP DP  RH WIND       PRES   REMARKS
NORFOLK        CLOUDY    33  30  88 N15       29.78R WCI  23
SO SIOUX CITY  CLOUDY    35  31  85 N10       29.77R WCI  27
TEKAMAH        CLEAR     33  30  88 N10       29.75R WCI  25
COLUMBUS       CLEAR     32  27  80 N13       29.76R WCI  22
ALBION         CLOUDY    32  29  88 N18G24    29.79R WCI  21
OMAHA EPPLEY   PTCLDY    38  31  76 CALM      29.73R
OFFUTT AFB     PTCLDY    30  28  93 CALM      29.72R
MILLARD        PTCLDY    31  29  93 CALM      29.72R
LINCOLN        CLEAR     29  26  89 N9        29.73R WCI  20
NEBRASKA CITY  MOCLDY    38  29  69 S9        29.72R WCI  32
BEATRICE       PTCLDY    38  30  72 S7        29.70R WCI  32
FALLS CITY     PTCLDY    37  30  75 SE7       29.73R WCI  32

...NORTHERN KANSAS...

CITY           SKY/WX    TMP DP  RH WIND       PRES   REMARKS
GOODLAND       CLOUDY    29  26  89 N15       29.78R WCI  18
HILL CITY      MOCLDY    31  26  82 N22G29    29.77R WCI  18
NORTON         CLOUDY    30  25  80 N17G23    29.77R WCI  18
PHILLIPSBURG   CLEAR     34  30  86 NW14      29.76R WCI  24
SMITH CENTER   CLEAR     30  27  86 N16G25    29.72R WCI  19
BELOIT         CLEAR     37  28  70 W5G17     29.69R WCI  34
HAYS           CLEAR     32  19  59 N17       29.71R WCI  21
RUSSELL        CLEAR     35  27  72 N15       29.69R WCI  25
CONCORDIA      CLEAR     38  30  73 S8        29.68R WCI  32
SALINA         PTCLDY    45  29  53 S3        29.71R
TOPEKA         CLEAR     50  30  46 S9        29.77R



USA.gov is the U.S. government's official web portal to all federal, state and local government web resources and services.